Weather observations for the past three days for
Rice Lake, Rice Lake Regional-Carl's Field Airport
Imperial (Metric)
Date Time (cdt) Wind (mph) Vis. (mi.) Weather Sky Cond. Temperature (ºF) Relative Humidity Wind Chill (°F) Heat Index (°F) Pressure Precipitation (in)
Air Dwpt 6 hour altimeter (in) sea level (mb) 1 hr 3 hr 6 hr
Max. Min.
21 15:15 Calm 10.00 Partly Cloudy SCT026 SCT034 SCT041 78.8 63.9 60% 80 30.15 0.0
21 14:55 Calm 10.00 Mostly Cloudy BKN026 BKN034 BKN043 77 63.9 64% 79 30.16 0.0
21 14:35 Calm 10.00 Mostly Cloudy SCT026 BKN035 77 63.7 64% 79 30.16 0.0
21 14:15 E 3 10.00 Mostly Cloudy BKN035 77.2 64 64% 79 30.16 0.0
21 13:55 Calm 10.00 Partly Cloudy SCT026 78.3 63.1 60% 80 30.16 0.0
21 13:35 E 5 10.00 Partly Cloudy SCT022 SCT028 76.3 63.5 65% 78 30.17 0.0
21 13:15 Calm 10.00 Mostly Cloudy SCT029 BKN038 76.5 64 66% 78 30.18 0.0
21 12:55 Calm 10.00 Overcast SCT018 OVC029 74.5 64.6 74.7 66.2 71% 30.19 0.0
21 12:35 NE 3 10.00 Overcast BKN018 OVC029 74.7 64.2 70% 30.19 0.0
21 12:15 N 5 10.00 Overcast SCT018 OVC027 73.2 64.4 74% 30.19 0.0
21 11:55 Calm 10.00 Overcast OVC025 72.1 64.4 77% 30.19 0.0
21 11:35 Calm 10.00 Overcast BKN013 OVC023 71.6 64.2 78% 30.19 0.0
21 11:15 SW 6 10.00 Overcast BKN013 OVC020 70.7 64.4 81% 30.19 0.0
21 10:55 Calm 10.00 Overcast BKN013 OVC024 71.1 64.4 80% 30.19 0.0
21 10:35 SE 5 10.00 Overcast BKN013 OVC022 70.3 64.2 81% 30.19 0.0
21 10:15 SE 3 10.00 Overcast BKN011 OVC022 70.5 63.9 80% 30.19 0.0
21 09:55 SE 6 10.00 Thunderstorm in Vicinity BKN011 OVC020 70.7 64.4 81% 30.19 0.0
21 09:35 E 5 10.00 Overcast BKN011 OVC018 69.8 63.5 81% 30.19 0.0
21 09:15 SE 6 10.00 Overcast OVC009 68.9 63.5 83% 30.19 0.0
21 08:55 SE 6 10.00 Thunderstorm in Vicinity OVC007 68.2 63.5 85% 30.19 0.0
21 08:35 E 6 10.00 Overcast OVC007 67.5 63.5 87% 30.19 0.0
21 08:15 SE 6 10.00 Overcast OVC007 67.1 63.7 89% 30.19 0.0
21 07:55 E 5 10.00 Overcast OVC007 67.1 63.5 88% 30.18 0.0
21 07:35 E 5 10.00 Thunderstorm in Vicinity BKN009 OVC065 67.3 63.5 88% 30.17 0.0
21 07:15 Calm 7.00 Mostly Cloudy SCT011 BKN046 BKN060 66.6 63.9 91% 30.17 0.0
21 06:55 N 3 7.00 Thunderstorm in Vicinity BKN046 OVC060 66.2 63.7 67.3 64.4 92% 30.16 0.0
21 06:35 N 3 7.00 Overcast OVC044 66.2 63.7 92% 30.15 0.0
21 06:15 Calm 7.00 Thunderstorm in Vicinity OVC044 66.2 63.7 92% 30.15 0.0
21 05:35 N 5 10.00 Overcast OVC120 66.2 64 93% 30.14 0.0
21 05:15 N 3 10.00 Thunderstorm in Vicinity OVC120 66.4 64.4 93% 30.14 0.0
21 04:55 N 3 7.00 Overcast OVC120 66.6 64.8 94% 30.14 0.0
21 04:35 Calm 7.00 Overcast SCT046 OVC120 66.4 64.8 95% 30.14 0.0
21 04:15 N 6 4.00 Fog/Mist SCT046 OVC120 65.7 64 95% 30.14 0.0
21 03:55 Calm 4.00 Fog/Mist BKN120 64.9 63.5 95% 30.14 0.0
21 03:35 Calm 4.00 Fog/Mist SCT120 64.9 63.3 95% 30.14 0.0
21 03:15 Calm 3.00 Fog/Mist CLR 64.8 63.1 95% 30.14 0.0
21 02:55 Calm 4.00 Fog/Mist CLR 65.3 63.5 94% 30.14 0.0
21 02:35 Calm 3.00 Fog/Mist CLR 65.3 63.5 94% 30.14 0.0
21 02:15 Calm 4.00 Fog/Mist CLR 65.7 63.9 94% 30.14 0.0
21 01:55 N 3 4.00 Fog/Mist SCT050 SCT070 66.2 64.4 94% 30.14 0.0
21 01:35 Calm 7.00 Mostly Cloudy SCT050 BKN070 BKN080 66.9 65.1 94% 30.14 0.0
21 01:15 Calm 5.00 Thunderstorm Fog/Mist SCT055 SCT070 BKN080 66.7 64.8 93% 30.15 0.0
21 00:55 Calm 7.00 Mostly Cloudy BKN055 BKN070 67.5 65.3 77.5 67.1 93% 30.14 0.0 0.1
21 00:35 Calm 5.00 Fog/Mist SCT055 BKN070 OVC090 67.5 65.5 93% 30.14 0.0
21 00:15 Calm 7.00 Overcast SCT070 OVC100 67.5 65.5 93% 30.14 0.0
20 23:55 Calm 7.00 Mostly Cloudy BKN100 68 65.8 93% 30.14 0.0
20 23:40 Calm 7.00 Partly Cloudy SCT110 67.1 64.9 93% 30.13 0.0
20 23:15 Calm 7.00 Mostly Cloudy SCT085 BKN120 67.3 64.8 92% 30.13 0.0
20 22:55 Calm 10.00 Mostly Cloudy SCT085 BKN110 68.2 65.3 91% 30.13 0.0 0.05
20 22:35 S 3 10.00 Mostly Cloudy SCT046 SCT070 BKN110 68.9 65.3 88% 30.13 0.0 0.05
20 22:15 Calm 5.00 Rain SCT024 BKN080 OVC110 68.7 64.8 87% 30.14 0.0 0.04
20 21:55 Calm 10.00 Light Rain SCT070 SCT075 OVC110 71.6 63.5 76% 30.14 0.0 0.05 0.05
20 21:35 N 13 G 17 10.00 Light Rain BKN070 BKN085 OVC110 71.8 66.4 83% 30.14 0.0
20 21:15 Calm 10.00 Overcast BKN080 OVC100 72.3 65.5 79% 30.13 0.0
20 20:55 Calm 10.00 Overcast OVC080 72.7 65.7 79% 30.13 0.0
20 20:35 Calm 10.00 Overcast OVC090 73.9 65.1 74% 30.12 0.0
20 20:15 Calm 10.00 Mostly Cloudy BKN090 74.5 65.7 74% 30.12 0.0
20 19:55 Calm 7.00 Mostly Cloudy BKN100 76.1 63.9 66% 78 30.11 0.0
20 19:35 Calm 10.00 Mostly Cloudy BKN100 74.5 65.8 75% 30.11 0.0
20 19:15 Calm 10.00 Fair CLR 76.3 64.9 68% 78 30.11 0.0
20 18:55 Calm 10.00 Partly Cloudy SCT085 77.7 64.2 81.7 77.7 63% 80 30.1 0.0
20 18:35 Calm 10.00 Partly Cloudy SCT085 79 60.6 53% 80 30.11 0.0
20 18:15 Calm 10.00 Fair CLR 79.9 59.4 50% 81 30.1 0.0
20 17:55 W 3 10.00 Fair CLR 80.8 58.5 47% 81 30.1 0.0
20 17:35 SW 3 10.00 Fair CLR 81.5 57.4 44% 81 30.1 0.0
20 17:15 S 3 7.00 Fair CLR 81.1 56.3 43% 81 30.1 0.0
20 16:55 SW 5 5.00 Fair with Haze CLR 81.5 57.2 44% 81 30.1 0.0
20 16:35 W 5 10.00 Fair CLR 81.5 57.6 44% 81 30.09 0.0
20 16:15 S 5 7.00 Fair CLR 81.1 58.3 46% 81 30.1 0.0
20 15:55 Calm 10.00 Partly Cloudy SCT080 80.4 57.7 46% 81 30.11 0.0
20 15:35 W 3 10.00 Overcast OVC080 79.7 58.8 49% 80 30.11 0.0
20 15:15 Calm 10.00 Overcast OVC080 79.7 58.1 48% 80 30.12 0.0
20 14:55 Calm 10.00 Mostly Cloudy SCT048 SCT060 BKN080 80.8 59 48% 81 30.13 0.0
20 14:35 Calm 10.00 Mostly Cloudy BKN048 BKN060 79.2 57.7 48% 80 30.13 0.0
20 14:15 Calm 10.00 Partly Cloudy SCT048 SCT050 SCT075 80.1 58.5 48% 81 30.13 0.0
20 13:55 Calm 10.00 Mostly Cloudy BKN050 BKN075 81 58.1 46% 81 30.13 0.0
20 13:35 Calm 10.00 Overcast BKN046 OVC050 79.3 57.9 48% 80 30.13 0.0
20 13:15 Calm 7.00 Thunderstorm in Vicinity SCT046 BKN050 80.6 58.6 47% 81 30.13 0.0
20 12:55 NW 3 7.00 Mostly Cloudy BKN046 79 58.3 80.1 58.8 49% 80 30.13 0.0
20 12:35 NW 5 7.00 Partly Cloudy SCT046 79.7 59.2 50% 81 30.13 0.0
20 12:15 Calm 10.00 Fair CLR 79 58.5 50% 80 30.12 0.0
20 11:55 SW 3 7.00 Partly Cloudy SCT031 SCT037 79 60.6 53% 80 30.13 0.0
20 11:35 S 5 10.00 Partly Cloudy SCT030 SCT037 78.3 61.2 56% 80 30.12 0.0
20 11:15 Calm 10.00 Fair CLR 77.2 61.9 59% 79 30.13 0.0
20 10:55 NW 3 7.00 Fair CLR 76.6 62.1 61% 78 30.13 0.0
20 10:35 SW 5 10.00 Fair CLR 75.7 62.4 63% 78 30.14 0.0
20 10:15 Calm 10.00 Fair CLR 74.7 62.8 67% 30.14 0.0
20 09:55 N 3 10.00 Fair CLR 73.6 62.6 69% 30.13 0.0
20 09:35 W 3 10.00 Fair CLR 72.1 63 73% 30.13 0.0
20 09:15 Calm 10.00 Fair CLR 70.7 62.1 74% 30.14 0.0
20 08:55 Calm 10.00 Fair CLR 69.6 62.1 77% 30.14 0.0
20 08:35 SW 3 10.00 Fair CLR 67.3 61 80% 30.14 0.0
20 08:15 Calm 10.00 Fair CLR 65.5 60.6 84% 30.14 0.0
20 07:55 S 5 10.00 Fair CLR 63.9 59.9 87% 30.14 0.0
20 07:35 Calm 10.00 Fair CLR 62.4 59.9 92% 30.14 0.0
20 07:15 Calm 7.00 Fair CLR 60.1 58.8 96% 30.14 0.0
20 06:55 Calm 7.00 Fair CLR 58.6 57.4 59.9 55.4 96% 30.14 0.0
20 06:35 Calm 5.00 Fog/Mist CLR 57.2 55.9 96% 30.14 0.0
20 06:15 Calm 1.00 Fog/Mist VV007 56.3 55 96% 30.13 0.0
20 05:55 Calm 0.50 Fog VV005 56.8 55.6 96% 30.13 0.0
20 05:35 Calm 0.25 Fog BKN006 55.4 53.8 94% 30.12 0.0
20 05:15 Calm 0.50 Fog VV005 55.9 54.5 95% 30.12 0.0
20 04:35 Calm 1.00 Fog/Mist BKN005 56.5 55.2 96% 30.11 0.0
20 04:15 Calm 1.75 Fog/Mist SCT005 57.9 56.5 95% 30.1 0.0
20 03:55 Calm 1.00 Fog/Mist VV007 57 55.6 95% 30.1 0.0
20 03:35 Calm 4.00 Fog/Mist CLR 58.3 56.8 95% 30.1 0.0
20 03:15 Calm 1.25 Fog/Mist VV007 57.2 55.8 95% 30.1 0.0
20 02:55 Calm 5.00 Fog/Mist CLR 59 57.6 95% 30.1 0.0
20 02:35 Calm 5.00 Fog/Mist CLR 58.5 57 95% 30.1 0.0
20 02:15 Calm 7.00 Fair CLR 58.1 56.5 94% 30.1 0.0
20 01:55 Calm 5.00 Fog/Mist CLR 59.4 57.7 94% 30.1 0.0
20 01:35 Calm 5.00 Fog/Mist CLR 59 57.4 94% 30.11 0.0
20 01:15 Calm 7.00 Fair CLR 59.9 58.1 94% 30.11 0.0
20 00:55 Calm 10.00 Fair CLR 59.7 58.1 76.1 59.7 94% 30.11 0.0
20 00:35 Calm 7.00 Fair CLR 61 59.4 94% 30.11 0.0
20 00:15 Calm 10.00 Fair CLR 60.8 59 94% 30.11 0.0
19 23:55 Calm 7.00 Fair CLR 61.7 59.7 93% 30.11 0.0
19 23:35 Calm 10.00 Fair CLR 61.7 59.9 94% 30.11 0.0
19 23:15 Calm 10.00 Fair CLR 61.5 59.5 93% 30.11 0.0
19 22:55 Calm 10.00 Fair CLR 62.1 59.4 91% 30.11 0.0
19 22:35 Calm 10.00 Fair CLR 62.6 59 88% 30.11 0.0
19 22:15 Calm 10.00 Fair CLR 65.3 59.5 82% 30.11 0.0
19 21:55 Calm 10.00 Fair CLR 66.4 60.6 82% 30.11 0.0
19 21:35 Calm 10.00 Fair CLR 67.3 60.6 79% 30.11 0.0
19 21:15 Calm 10.00 Fair CLR 67.1 59.9 78% 30.1 0.0
19 20:55 Calm 10.00 Fair CLR 69.6 60.3 72% 30.1 0.0
19 20:35 Calm 10.00 Fair CLR 71.4 60.1 68% 30.1 0.0
19 20:15 Calm 10.00 Fair CLR 73.6 59 60% 30.09 0.0
19 19:55 S 3 10.00 Fair CLR 74.7 58.8 58% 30.09 0.0
19 19:15 S 5 10.00 Fair CLR 75.2 55.6 51% 78 30.1 0.0
19 18:55 SW 6 10.00 Fair CLR 76.1 54 79.5 76.1 46% 78 30.1 0.0
19 18:35 SW 5 10.00 Fair CLR 77 53.4 44% 78 30.1 0.0
19 18:15 SW 6 10.00 Fair CLR 77.4 53.4 44% 79 30.1 0.0
19 17:55 SW 7 10.00 Fair CLR 77.4 53.8 44% 79 30.1 0.0
19 17:35 SW 5 7.00 Fair CLR 77 53.2 44% 78 30.11 0.0
19 17:15 SW 7 10.00 Fair CLR 77.4 53.2 43% 79 30.1 0.0
19 16:55 SW 5 7.00 Fair CLR 77.7 51.3 40% 79 30.1 0.0
19 16:15 SW 7 7.00 Partly Cloudy SCT060 78.8 52.5 40% 79 30.11 0.0
19 15:55 S 7 10.00 Mostly Cloudy BKN060 78.8 53.6 42% 79 30.11 0.0
19 15:35 SW 8 7.00 Partly Cloudy SCT060 79.3 53.1 40% 80 30.12 0.0
19 15:15 SW 7 7.00 Partly Cloudy SCT050 79 52.3 40% 79 30.11 0.0
19 14:55 SW 8 5.00 Partly Cloudy with Haze SCT050 78.1 52.2 41% 79 30.12 0.0
19 14:35 SW 8 7.00 Partly Cloudy SCT050 78.1 53.1 42% 79 30.12 0.0
19 14:15 W 9 10.00 Fair CLR 78.1 52.5 41% 79 30.13 0.0
19 13:55 SW 10 G 16 10.00 Partly Cloudy SCT050 SCT070 78.3 52.7 41% 79 30.13 0.0
19 13:35 SW 8 7.00 Partly Cloudy SCT050 77.5 53.2 43% 79 30.14 0.0
19 13:15 W 7 7.00 Partly Cloudy SCT050 SCT065 78.3 55.2 45% 79 30.15 0.0
19 12:55 SW 9 G 17 10.00 Partly Cloudy SCT048 SCT065 77.2 53.2 77.4 56.5 44% 78 30.15 0.0
19 12:35 SW 7 10.00 Partly Cloudy SCT045 SCT055 SCT065 75.2 54.9 49% 78 30.15 0.0
19 12:15 SW 7 7.00 Mostly Cloudy SCT045 SCT060 BKN065 74.5 55.2 51% 30.15 0.0
19 11:55 SW 8 7.00 Mostly Cloudy SCT043 SCT050 BKN060 74.8 54.1 49% 30.15 0.0
19 11:35 SW 5 7.00 Partly Cloudy SCT043 73.9 55.6 53% 30.15 0.0
19 11:15 SW 7 7.00 Fair CLR 75 55.6 51% 78 30.15 0.0
19 10:55 SW 8 10.00 Fair CLR 73.9 55.4 52% 30.15 0.0
19 10:35 W 7 10.00 Partly Cloudy SCT060 73.6 56.1 55% 30.16 0.0
19 10:15 SW 7 10.00 Mostly Cloudy BKN060 73 56.7 57% 30.16 0.0
19 09:55 W 5 5.00 Fair with Haze CLR 71.8 56.8 59% 30.17 0.0
19 09:35 W 5 7.00 Fair CLR 70.9 56.1 60% 30.17 0.0
19 09:15 SW 6 7.00 Partly Cloudy SCT060 70 56.5 62% 30.18 0.0
19 08:55 S 3 7.00 Partly Cloudy SCT060 67.6 57.4 70% 30.18 0.0
19 08:35 S 3 7.00 Partly Cloudy SCT060 65.3 57.2 75% 30.19 0.0
19 08:15 Calm 7.00 Partly Cloudy SCT060 63.5 56.5 78% 30.19 0.0
19 07:55 Calm 7.00 Fair CLR 61.7 55.4 80% 30.19 0.0
19 07:35 Calm 7.00 Fair CLR 60.6 55.6 84% 30.19 0.0
19 07:15 Calm 7.00 Fair CLR 59 56.3 91% 30.18 0.0
19 06:55 Calm 7.00 Fair CLR 56.3 54.9 56.7 52.5 95% 30.18 0.0
19 06:35 Calm 5.00 Fog/Mist CLR 54.1 52.9 96% 30.18 0.0
19 06:15 Calm 5.00 Fog/Mist CLR 53.2 52 96% 30.18 0.0
19 05:55 Calm 5.00 Fog/Mist CLR 53.1 51.8 96% 30.17 0.0
19 05:35 Calm 7.00 Fair CLR 52.7 51.3 95% 30.17 0.0
19 05:15 Calm 5.00 Fog/Mist CLR 53.2 52 96% 30.17 0.0
19 04:55 Calm 3.00 Fog/Mist CLR 53.1 51.8 96% 30.17 0.0
19 04:35 Calm 7.00 Fair CLR 53.2 52 96% 30.17 0.0
19 04:15 Calm 10.00 Fair CLR 53.8 52.5 96% 30.16 0.0
19 03:55 Calm 5.00 Fog/Mist CLR 53.1 51.6 95% 30.16 0.0
19 03:35 Calm 3.00 Fog/Mist CLR 54.5 53.1 95% 30.16 0.0
19 03:15 Calm 1.50 Fog/Mist VV007 54 52.7 96% 30.16 0.0
19 02:55 Calm 1.00 Fog/Mist VV007 54.7 53.2 95% 30.17 0.0
19 02:35 Calm 4.00 Fog/Mist CLR 54.5 53.1 95% 30.16 0.0
19 02:15 Calm 5.00 Fog/Mist CLR 55.2 53.6 94% 30.16 0.0
19 01:55 Calm 7.00 Fair CLR 55.6 54 94% 30.16 0.0
19 01:35 Calm 5.00 Fog/Mist CLR 55.9 54.3 94% 30.16 0.0
19 01:15 Calm 7.00 Fair CLR 55.6 54 94% 30.17 0.0
19 00:55 Calm 4.00 Fog/Mist CLR 56.7 55.2 73.8 56.3 95% 30.16 0.0
19 00:35 Calm 10.00 Fair CLR 56.7 54.5 93% 30.16 0.0
19 00:15 Calm 7.00 Fair CLR 57.6 54.3 89% 30.16 0.0
18 23:55 Calm 7.00 Fair CLR 57.9 55.9 93% 30.17 0.0
18 23:35 Calm 7.00 Fair CLR 58.3 56.3 93% 30.17 0.0
18 23:15 Calm 7.00 Fair CLR 58.5 56.1 92% 30.17 0.0
18 22:55 Calm 10.00 Fair CLR 59 56.3 91% 30.16 0.0
18 22:35 Calm 10.00 Fair CLR 59.9 56.7 89% 30.17 0.0
18 22:15 Calm 10.00 Fair CLR 60.8 56.5 86% 30.17 0.0
18 21:55 Calm 7.00 Fair CLR 61.3 56.5 84% 30.17 0.0
18 21:35 Calm 10.00 Fair CLR 63 55.8 77% 30.17 0.0
18 21:15 Calm 10.00 Fair CLR 63 56.8 81% 30.16 0.0
18 20:55 Calm 7.00 Fair CLR 64.2 55.8 74% 30.16 0.0
18 20:35 Calm 10.00 Fair CLR 65.8 57.6 75% 30.16 0.0
18 20:15 Calm 10.00 Fair CLR 70.3 55 59% 30.16 0.0
18 19:55 Calm 10.00 Fair CLR 71.8 53.2 52% 30.17 0.0
18 19:35 W 3 10.00 Fair CLR 72.1 54.7 54% 30.17 0.0
18 19:15 Calm 7.00 Fair CLR 72.9 54 52% 30.17 0.0
18 18:55 W 3 7.00 Partly Cloudy SCT060 74.1 51.6 75.9 71.1 45% 30.18 0.0
18 18:35 Calm 10.00 Fair CLR 74.5 50.9 44% 30.18 0.0
18 18:15 W 5 10.00 Partly Cloudy SCT060 74.8 51.1 43% 30.18 0.0
18 17:55 NW 5 7.00 Partly Cloudy SCT060 75.2 50.9 43% 78 30.19 0.0
18 17:35 W 3 7.00 Mostly Cloudy BKN060 75.4 52.3 45% 78 30.19 0.0
18 17:15 Calm 10.00 Partly Cloudy SCT060 73.6 51.4 46% 30.19 0.0
18 16:55 SW 5 10.00 Fair CLR 75.6 51.3 43% 78 30.19 0.0
18 16:35 W 3 10.00 Partly Cloudy SCT055 75.4 51.6 44% 78 30.2 0.0
18 16:15 NW 5 10.00 Partly Cloudy SCT055 75.9 50.4 41% 78 30.2 0.0
18 15:55 Calm 10.00 Fair CLR 74.7 49.8 42% 30.21 0.0
Date Time (cdt) Wind (mph) Vis. (mi.) Weather Sky Cond. Air Dwpt Max. Min. Relative Humidity Wind Chill (°F) Heat Index (°F) altimeter (in) sea level (mb) 1 hr 3 hr 6 hr
6 hour
Temperature (ºF) Pressure Precipitation (in)